This demonstration page uses our WeatherBlox Daily Observations layout. Learn more.

Hourly Observations for January 24, 2020

Temp ( °F °C ) Dew Point ( °F °C ) Humidity (%) Winds ( mph kmh ) Pressure ( in mb ) Visibility ( mi km ) Precip ( " mm )
12:15 am 00:15 Cloudy 32 0 28 -2 87 87 Calm 30.37 1029 10 16.0934 0 0
12:35 am 00:35 Cloudy 32 0 28 -2 87 87 Calm 30.35 1028 10 16.0934 0 0
12:55 am 00:55 Cloudy 34 1 28 -2 81 81 Calm 30.34 1027 10 16.0934 0 0
1:15 am 01:15 Cloudy 34 1 28 -2 81 81 Calm 30.35 1028 10 16.0934 0 0
1:35 am 01:35 Cloudy 34 1 27 -3 75 75 Calm 30.34 1027 10 16.0934 0 0
1:55 am 01:55 Cloudy 36 2 27 -3 70 70 Calm 30.34 1027 10 16.0934 0 0
2:15 am 02:15 Cloudy 34 1 28 -2 81 81 NW 5 7 30.35 1028 10 16.0934 0 0
2:35 am 02:35 Cloudy 34 1 27 -3 75 75 NE 3 6 30.34 1027 10 16.0934 0 0
2:55 am 02:55 Cloudy 34 1 27 -3 75 75 ENE 3 6 30.34 1027 10 16.0934 0 0
3:15 am 03:15 Cloudy 34 1 28 -2 81 81 Calm 30.34 1027 10 16.0934 0 0
3:35 am 03:35 Cloudy 34 1 28 -2 81 81 Calm 30.33 1027 10 16.0934 0 0
3:55 am 03:55 Cloudy 36 2 28 -2 75 75 Calm 30.33 1027 10 16.0934 0 0
4:15 am 04:15 Cloudy 36 2 28 -2 75 75 Calm 30.33 1027 10 16.0934 0 0
4:35 am 04:35 Cloudy 34 1 28 -2 81 81 Calm 30.33 1027 10 16.0934 0 0
4:55 am 04:55 Mostly Cloudy 34 1 28 -2 81 81 Calm 30.33 1027 10 16.0934 0 0
5:15 am 05:15 Mostly Cloudy 34 1 28 -2 81 81 Calm 30.34 1027 10 16.0934 0 0
5:35 am 05:35 Partly Cloudy 34 1 28 -2 81 81 NNE 5 7 30.33 1027 10 16.0934 0 0
5:55 am 05:55 Mostly Cloudy 34 1 28 -2 81 81 NE 5 7 30.33 1027 10 16.0934 0 0
6:15 am 06:15 Mostly Cloudy 34 1 28 -2 81 81 NNE 5 7 30.33 1027 10 16.0934 0 0
6:35 am 06:35 Mostly Cloudy 34 1 28 -2 81 81 NE 5 7 30.33 1027 10 16.0934 0 0
6:55 am 06:55 Cloudy 34 1 28 -2 81 81 Calm 30.34 1027 10 16.0934 0 0
7:15 am 07:15 Cloudy 34 1 28 -2 81 81 Calm 30.34 1027 10 16.0934 0 0
7:35 am 07:35 Cloudy 34 1 28 -2 81 81 N 3 6 30.35 1028 10 16.0934 0 0
7:55 am 07:55 Cloudy 34 1 28 -2 81 81 NNE 6 9 30.34 1027 10 16.0934 0 0
8:15 am 08:15 Cloudy 36 2 28 -2 75 75 Calm 30.34 1027 10 16.0934 0 0
8:35 am 08:35 Cloudy 36 2 28 -2 75 75 Calm 30.34 1027 10 16.0934 0 0
8:55 am 08:55 Cloudy 36 2 30 -1 81 81 Calm 30.34 1027 10 16.0934 0 0
9:15 am 09:15 Cloudy 36 2 30 -1 81 81 Calm 30.34 1027 10 16.0934 0 0
9:35 am 09:35 Cloudy 36 2 30 -1 81 81 NE 3 6 30.33 1027 10 16.0934 0 0
9:55 am 09:55 Cloudy 37 3 32 0 81 81 Calm 30.33 1027 10 16.0934 0 0
10:15 am 10:15 Cloudy 37 3 32 0 81 81 N 3 6 30.33 1027 10 16.0934 0 0
10:35 am 10:35 Cloudy 37 3 32 0 81 81 Calm 30.33 1027 10 16.0934 0 0
10:55 am 10:55 Cloudy 39 4 32 0 75 75 Calm 30.33 1027 10 16.0934 0 0
11:15 am 11:15 Cloudy 41 5 34 1 76 76 NNE 3 6 30.31 1027 10 16.0934 0 0
11:35 am 11:35 Cloudy 41 5 34 1 76 76 ENE 5 7 30.29 1026 10 16.0934 0 0
11:55 am 11:55 Cloudy 43 6 34 1 71 71 NE 5 7 30.28 1025 10 16.0934 0 0
12:15 pm 12:15 Cloudy 43 6 36 2 76 76 NE 6 9 30.26 1025 10 16.0934 0 0
12:35 pm 12:35 Cloudy 45 7 36 2 71 71 NE 3 6 30.25 1024 10 16.0934 0 0
12:55 pm 12:55 Cloudy 45 7 36 2 71 71 Calm 30.23 1024 10 16.0934 0 0
1:15 pm 13:15 Cloudy 45 7 37 3 76 76 ENE 5 7 30.22 1023 10 16.0934 0 0
1:35 pm 13:35 Cloudy 46 8 37 3 71 71 E 3 6 30.21 1023 7 11.26538 0 0
1:55 pm 13:55 Cloudy 46 8 39 4 76 76 Calm 30.2 1023 10 16.0934 0 0
2:15 pm 14:15 Cloudy 48 9 41 5 76 76 SE 5 7 30.19 1022 7 11.26538 0 0
2:35 pm 14:35 Cloudy 46 8 43 6 87 87 SE 6 9 30.19 1022 10 16.0934 0 0
2:55 pm 14:55 Cloudy 48 9 43 6 82 82 SE 10 17 30.19 1022 7 11.26538 0 0
3:15 pm 15:15 Cloudy 46 8 45 7 93 93 ESE 5 7 30.18 1022 10 16.0934 0 0
3:35 pm 15:35 Cloudy 46 8 45 7 93 93 E 8 13 30.17 1022 5 8.0467 0 0
3:55 pm 15:55 Cloudy 46 8 45 7 93 93 E 5 7 30.16 1021 10 16.0934 0 0
4:15 pm 16:15 Cloudy 46 8 45 7 93 93 E 5 7 30.16 1021 10 16.0934 0 0
4:35 pm 16:35 Cloudy 46 8 45 7 93 93 E 5 7 30.16 1021 10 16.0934 0 0
4:55 pm 16:55 Cloudy 46 8 43 6 87 87 E 7 11 30.16 1021 10 16.0934 0 0
5:15 pm 17:15 Cloudy 46 8 43 6 87 87 E 5 7 30.16 1021 10 16.0934 0 0
5:35 pm 17:35 Cloudy 46 8 43 6 87 87 E 3 6 30.15 1021 10 16.0934 0 0
5:55 pm 17:55 Cloudy 46 8 43 6 87 87 E 3 6 30.14 1021 10 16.0934 0 0
6:15 pm 18:15 Cloudy 46 8 43 6 87 87 Calm 30.14 1021 10 16.0934 0 0
6:35 pm 18:35 Cloudy 46 8 43 6 87 87 E 6 9 30.14 1021 10 16.0934 0 0
6:55 pm 18:55 Cloudy 46 8 43 6 87 87 E 6 9 30.13 1020 10 16.0934 0 0
7:15 pm 19:15 Cloudy 46 8 43 6 87 87 ESE 8 13 30.12 1020 10 16.0934 0 0
7:35 pm 19:35 Cloudy 48 9 43 6 82 82 ESE 8 13 30.12 1020 10 16.0934 0 0
7:55 pm 19:55 Cloudy 48 9 43 6 82 82 ESE 13 20 30.11 1020 10 16.0934 0 0
8:15 pm 20:15 Cloudy 48 9 43 6 82 82 ESE 16 26 30.11 1020 10 16.0934 0 0
8:35 pm 20:35 Cloudy 48 9 43 6 82 82 ESE 10 17 30.09 1019 10 16.0934 0 0
8:55 pm 20:55 Cloudy 46 8 43 6 87 87 E 6 9 30.09 1019 10 16.0934 0 0
9:15 pm 21:15 Cloudy 46 8 43 6 87 87 E 7 11 30.08 1019 10 16.0934 0 0
9:35 pm 21:35 Cloudy 46 8 43 6 87 87 SE 13 20 30.08 1019 10 16.0934 0 0
9:55 pm 21:55 Cloudy 46 8 43 6 87 87 ESE 8 13 30.08 1019 7 11.26538 0 0
10:15 pm 22:15 Cloudy 46 8 43 6 87 87 ESE 9 15 30.06 1018 10 16.0934 0 0
10:35 pm 22:35 Cloudy 45 7 43 6 93 93 ESE 12 19 30.06 1018 7 11.26538 0.02 0.508
10:55 pm 22:55 Cloudy 45 7 43 6 93 93 ESE 12 19 30.05 1018 7 11.26538 0.05 1.27
11:15 pm 23:15 Cloudy 45 7 43 6 93 93 ESE 8 13 30.04 1017 10 16.0934 0.01 0.254
11:35 pm 23:35 Cloudy 45 7 45 7 100 100 ESE 9 15 30.03 1017 5 8.0467 0.05 1.27
11:55 pm 23:55 Cloudy 45 7 45 7 100 100 E 9 15 30 1016 7 11.26538 0.08 2.032

Powered by AerisWeather